Location: Bergfeld
(52.0500°N, 11.7833°E)
Time: 02:28:44
(UTC+00:00)

Cosmos 468 Rocket - Pass Details

Date: 17 February 2020
Orbit: 744 x 780 km, 74.0° (Epoch: 09 April)

Event Time Altitude Azimuth Distance (km) Brightness Sun altitude
Rises 05:22:16 0° 335° (NNW) 3,278 7.0 -10.3°
Reaches altitude 10° 05:24:42 10° 338° (NNW) 2,345 6.2 -9.9°
Maximum altitude 05:30:01 67° 62° (ENE) 845 4.5 -9.1°
Drops below altitude 10° 05:35:16 10° 145° (SE) 2,319 7.2 -8.3°
Sets 05:37:39 0° 148° (SSE) 3,238 7.9 -7.9°
